カタログに戻る

STARLINK-36361

運用中通信SSO
NORAD 67900·PAYLOAD·🇺🇸 United States

打ち上げ Feb 21, 2026 から Vandenberg Space Force Base

Loading…

次のパス (今後24時間)

TLE

最新Source: CelesTrak SupGP

元期: Sep 14, 2026, 22:40 UTC

1 67900C 26035X   26257.94493056 -.00059471  00000+0 -18467-2 0  2572
2 67900  97.2848 189.9291 0001795  91.1927 328.6107 15.33457669    19

AllMySatでSTARLINK-36361をリアルタイム追跡

Download on the App Store